Regional Weather Roundup
Issued by NWS Sioux Falls, SD

Home | Current Version | Previous Version | Graphics & Text | Print | Product List | Glossary On
Versions: 1 2 3 4 5 6 7 8 9 10 11 12 13 14 15 16 17 18 19 20 21 22 23 24 25 26 27 28 29 30 31 32 33 34 35 36 37 38 39 40 41 42 43 44 45 46 47 48 49 50
000
ASUS43 KFSD 220302
RWRFSD

WEATHER ROUNDUP FOR SE SOUTH DAKOTA/SW MINNESOTA/NW IOWA
NATIONAL WEATHER SERVICE SIOUX FALLS SD
1000 PM CDT MON JUL 21 2014

NOTE: "FAIR" INDICATES FEW OR NO CLOUDS BELOW 12,000 FEET WITH NO
SIGNIFICANT WEATHER AND OR OBSTRUCTIONS TO VISIBILITY.


SDZ038>040-050-052>070-220400-
SOUTHEAST SOUTH DAKOTA

CITY           SKY/WX    TMP DP  RH WIND       PRES   REMARKS
CHAMBERLAIN    CLEAR     85  61  43 N6        29.80R
HURON          CLEAR     81  68  64 NW5       29.76R
MADISON        FAIR      79  79 100 S7        29.81R
MITCHELL       CLEAR     84  79  85 S6        29.76R HX  96
SIOUX FALLS    PTCLDY    84  77  79 S13       29.78R
WINNER         FAIR      92  58  31 NW3       29.83R
YANKTON        MOCLDY    82  79  89 S7        29.78R
$$

MNZ071-072-080-081-089-090-097-098-220400-
SOUTHWEST MINNESOTA

CITY           SKY/WX    TMP DP  RH WIND       PRES   REMARKS
FAIRMONT       PTCLDY    81  73  78 SE13      29.84S
LUVERNE        CLEAR     81  77  89 S7        29.80S
MARSHALL       CLEAR     79  73  83 S12       29.75S
MONTEVIDEO     PTCLDY    81  75  83 S9        29.75S
PIPESTONE      CLEAR     81  75  83 S12       29.81R
REDWOOD FALLS  CLEAR     81  76  84 SE14      29.77S
TRACY          CLEAR     81  76  86 S10       29.78S
WINDOM         PTCLDY    81  75  83 SE10      29.82S
WORTHINGTON    PTCLDY    81  77  89 S9        29.84R
$$

IAZ001>003-012>014-020>022-031-032-NEZ013-014-SDZ071-220400-
NORTHWEST IOWA

CITY           SKY/WX    TMP DP  RH WIND       PRES   REMARKS
CHEROKEE       MOCLDY    81  79  95 S5        29.83R
DENISON        PTCLDY    82  79  89 S15       29.84R
ESTHERVILLE    MOCLDY    80  76  87 S12       29.84S
LE MARS        PTCLDY    82  77  83 S7        29.81S
ORANGE CITY    MOCLDY    82  77  83 S6        29.82R
SHELDON        PTCLDY    81  77  89 SE9       29.81R
SIOUX CITY     PTCLDY    85  78  80 SE6       29.80R HX  96
SPENCER        MOCLDY    82  77  84 SE10      29.83F
STORM LAKE     MOCLDY    81  81 100 S10G17    29.86R
$$

ABBREVIATIONS USED IN REMARKS
   TC - TEMPERATURE IN CELSIUS
  WCI - WIND CHILL INDEX
   HX - HEAT INDEX
  VSB - VISIBILITY




USA.gov is the U.S. government's official web portal to all federal, state and local government web resources and services.